Wind_Speed
8 8 8 7 7 7 8 8 8 7 7 7 7 7 6 6 7 8 8 8 8 8 8 8 9 9 9 9 9 10 10 11 12 13 14 14 15 15
9 8 8 7 8 8 8 8 8 8 7 7 8 8 7 7 8 8 8 8 8 8 8 9 9 9 9 9 10 10 11 12 13 14 14 15 15 15
9 9 8 8 8 8 8 8 8 7 7 7 8 8 8 8 9 9 8 8 9 8 9 10 10 10 10 10 11 11 13 14 14 14 14 15 15 15
9 9 9 9 9 9 9 9 9 8 8 8 8 8 9 9 9 9 9 9 9 9 10 10 10 10 11 11 12 12 13 14 15 15 16 15 15 15
10 10 10 9 9 9 9 9 9 9 9 9 9 9 9 9 9 10 10 10 10 10 10 11 11 12 12 12 13 13 14 15 15 16 16 15 15 16
11 11 10 10 9 9 10 10 10 10 10 10 10 10 10 10 10 10 10 11 11 11 11 12 12 13 13 14 14 14 15 15 15 16 16 16 16 17
12 12 12 11 10 10 10 10 11 11 11 11 11 11 11 11 11 11 11 11 12 12 12 13 13 14 14 15 15 15 15 16 16 17 17 17 18 19
13 13 12 12 11 11 11 11 11 12 12 12 12 11 11 12 12 13 13 13 13 13 14 14 15 16 16 17 17 17 17 17 17 17 18 18 19 19
14 14 13 13 13 12 12 12 12 13 13 12 12 12 12 13 13 14 14 15 15 15 15 15 16 17 17 18 18 18 18 18 18 18 19 20 20 20
14 15 14 14 14 14 14 14 14 14 14 14 14 14 14 14 15 15 15 16 16 16 16 16 17 17 18 18 19 19 19 20 20 20 21 21 22 22
16 15 15 15 15 15 15 15 15 16 15 15 16 16 16 16 16 16 16 16 17 17 17 18 18 18 19 20 20 21 21 21 21 21 22 23 23 23
16 16 16 16 16 16 17 16 16 16 16 16 17 17 17 17 17 18 18 18 18 19 19 20 20 20 20 20 21 22 22 22 23 23 23 23 24 24
17 17 17 17 17 17 18 18 17 17 18 18 18 18 18 18 19 19 20 20 20 20 21 21 22 22 22 21 22 23 23 23 23 24 24 24 24 24
19 18 19 19 19 18 18 18 18 18 19 19 19 19 19 19 20 21 22 22 22 22 22 22 22 23 23 23 24 24 24 24 24 24 24 25 25 26
20 20 20 20 20 20 20 19 19 19 20 20 19 19 20 20 21 22 23 23 23 23 23 23 23 24 24 25 25 25 24 24 25 25 25 26 27 27
22 21 21 21 21 21 21 21 20 20 21 21 21 21 21 22 22 23 23 22 23 23 24 24 25 25 25 25 25 25 25 25 25 26 27 27 28 29
23 22 22 22 22 22 22 22 22 22 22 22 22 22 22 22 23 23 23 23 23 23 24 24 25 25 25 25 25 25 25 26 26 27 28 28 28 29
25 24 24 23 23 22 23 23 23 23 23 23 23 23 23 23 23 23 23 23 23 23 24 24 25 25 25 25 26 26 26 27 28 28 29 29 28 29
26 25 25 25 25 24 24 24 24 23 23 23 23 23 23 24 24 25 24 25 25 25 26 26 26 26 26 26 27 27 28 28 29 29 29 30 29 30
28 27 27 26 26 26 25 25 25 25 25 25 24 24 24 25 25 26 26 26 27 27 28 28 28 28 28 28 28 29 29 29 30 30 30 30 30 30
29 29 29 28 28 27 27 27 27 27 26 26 26 26 26 26 26 27 27 27 28 29 29 29 30 30 29 29 29 29 29 30 31 30 30 30 31 31
29 30 30 30 30 29 28 28 28 28 28 27 27 27 27 28 28 28 29 29 29 29 30 30 30 30 30 30 30 30 30 30 31 32 32 32 32 33
31 31 31 30 30 30 29 29 29 29 29 29 29 29 29 30 30 30 30 30 30 29 30 30 31 31 31 31 31 31 31 31 32 32 33 34 35 35
Wind_Direction
271 274 274 269 269 271 272 275 271 268 273 275 279 279 284 292 300 305 310 312 313 316 320 323 322 320 322 323 327 330 333 336 336 336 335 334 328 326
267 271 270 270 270 273 273 274 268 264 271 273 277 276 281 289 296 301 306 310 313 313 316 320 323 322 320 323 328 332 332 333 333 332 330 331 333 333
263 267 271 273 272 269 272 273 270 267 272 275 279 278 280 287 293 299 303 306 312 310 312 316 318 319 319 322 326 329 328 330 332 330 331 331 331 332
263 265 268 270 270 268 269 271 267 267 273 278 278 282 284 286 291 296 298 301 309 310 309 314 316 317 319 320 323 324 325 327 329 329 329 330 330 330
263 266 272 271 269 267 267 267 266 266 271 278 280 284 289 290 294 295 295 299 303 305 306 308 311 314 315 315 319 321 323 325 325 326 326 329 330 330
263 265 270 272 265 266 266 265 264 266 271 275 280 286 287 289 296 299 301 301 302 302 303 304 304 308 313 314 317 318 320 321 323 323 324 326 328 329
262 263 268 267 264 267 267 267 267 267 270 273 278 282 283 288 294 297 299 300 301 304 304 306 306 306 307 310 314 316 316 318 318 320 322 323 324 326
264 264 263 262 264 267 266 268 269 269 270 272 274 278 282 286 290 294 297 299 298 301 303 304 306 308 308 309 311 313 315 315 316 315 317 319 320 321
264 263 262 260 261 264 265 267 269 270 271 272 273 276 280 285 289 294 297 299 300 300 300 300 302 304 305 307 309 311 312 313 313 314 314 315 317 318
262 262 261 260 262 263 264 266 267 268 269 271 271 275 281 285 288 292 294 296 299 300 300 301 302 303 305 305 305 307 307 309 311 312 313 314 315 315
260 260 260 260 263 264 265 268 269 269 270 270 274 277 282 285 288 291 292 294 296 297 298 300 302 304 304 304 304 303 304 305 307 308 310 312 312 314
260 260 260 261 265 265 265 268 269 268 269 270 272 276 280 284 287 290 294 295 296 297 297 299 301 302 302 303 303 303 303 304 305 306 307 308 310 312
260 260 260 262 265 265 265 267 267 267 269 270 272 275 278 283 287 289 293 295 296 296 297 298 299 300 301 302 302 302 303 303 303 303 304 305 306 308
260 260 259 261 264 265 266 267 267 268 269 271 273 276 279 282 285 288 290 293 295 296 297 298 299 300 301 302 302 302 303 303 302 302 302 302 303 304
259 261 260 261 263 264 266 266 267 270 272 272 273 275 279 283 286 288 289 290 292 294 296 298 299 299 300 301 302 302 303 304 304 303 302 301 301 302
259 260 260 262 263 264 266 267 268 271 273 273 274 275 279 283 286 287 289 290 291 293 294 296 297 298 299 300 301 302 303 304 304 304 304 303 302 302
259 260 262 263 264 265 266 267 269 272 273 274 276 277 279 283 286 288 289 290 292 293 294 295 296 297 298 299 300 301 302 304 305 305 305 305 305 304
258 258 260 262 263 265 266 266 268 271 272 274 277 278 280 282 285 287 288 289 291 293 294 296 297 297 298 299 299 299 300 302 304 306 307 306 307 307
256 257 259 261 263 264 266 267 267 269 271 275 277 278 280 281 283 285 286 288 290 291 292 294 296 297 297 298 298 298 299 301 302 304 305 307 307 307
255 256 257 259 262 264 266 267 267 269 271 273 275 278 280 282 284 284 285 287 289 289 290 291 293 295 297 298 297 297 298 300 302 303 304 305 306 306
255 255 256 257 260 263 265 264 265 268 271 272 274 276 279 281 284 285 285 286 288 288 288 289 291 293 294 296 296 296 297 299 300 301 302 303 304 305
254 255 256 257 258 261 262 263 265 266 269 271 273 275 277 280 282 284 286 286 287 288 288 289 290 291 293 294 295 295 296 297 299 300 302 303 304 305
255 255 257 258 258 260 261 263 265 267 269 272 273 275 277 279 282 284 287 288 288 288 289 289 289 290 291 292 294 295 296 297 298 299 301 302 303 304
Height
5834 5834 5834 5834 5835 5835 5836 5836 5836 5836 5836 5836 5836 5836 5836 5836 5836 5835 5834 5833 5833 5832 5831 5830 5829 5828 5827 5825 5824 5823 5821 5819 5817 5815 5812 5809 5807 5805
5832 5832 5832 5833 5833 5833 5833 5834 5834 5835 5835 5835 5835 5835 5834 5834 5834 5833 5832 5832 5831 5830 5829 5828 5827 5826 5825 5824 5822 5821 5820 5818 5815 5813 5810 5808 5805 5802
5830 5830 5830 5831 5831 5831 5832 5832 5832 5833 5833 5833 5833 5833 5833 5832 5832 5831 5831 5830 5829 5828 5827 5826 5825 5824 5823 5821 5820 5819 5817 5815 5813 5811 5808 5806 5803 5800
5827 5828 5828 5828 5829 5829 5830 5830 5830 5830 5831 5831 5831 5831 5831 5830 5830 5829 5829 5828 5827 5826 5825 5824 5823 5822 5821 5819 5818 5817 5815 5813 5811 5809 5806 5804 5801 5798
5824 5825 5825 5826 5826 5827 5827 5827 5828 5828 5829 5829 5829 5829 5828 5828 5828 5827 5826 5826 5825 5824 5823 5822 5821 5820 5818 5817 5815 5814 5812 5810 5808 5806 5803 5801 5798 5795
5822 5822 5823 5823 5824 5824 5824 5825 5825 5826 5826 5826 5826 5826 5826 5825 5825 5824 5824 5823 5823 5822 5821 5819 5818 5817 5816 5814 5813 5811 5809 5807 5805 5803 5801 5798 5795 5792
5819 5819 5820 5820 5821 5822 5822 5822 5823 5823 5823 5824 5823 5823 5823 5823 5822 5822 5821 5821 5820 5819 5818 5817 5815 5814 5813 5811 5809 5808 5806 5804 5802 5800 5797 5795 5792 5789
5815 5816 5817 5817 5818 5818 5819 5819 5820 5820 5820 5821 5821 5820 5820 5820 5819 5819 5818 5818 5817 5816 5815 5814 5812 5811 5809 5807 5806 5804 5802 5800 5798 5796 5794 5791 5789 5786
5811 5812 5813 5814 5815 5815 5816 5816 5816 5817 5817 5817 5817 5817 5817 5817 5816 5815 5815 5814 5813 5812 5811 5810 5809 5807 5805 5803 5802 5800 5798 5796 5794 5792 5789 5787 5784 5782
5808 5809 5810 5810 5811 5811 5812 5812 5813 5813 5813 5814 5814 5813 5813 5813 5812 5812 5811 5810 5809 5808 5807 5806 5804 5803 5801 5799 5797 5795 5793 5791 5789 5787 5785 5782 5779 5777
5803 5804 5805 5806 5807 5807 5808 5808 5809 5809 5809 5809 5809 5809 5809 5808 5808 5807 5806 5805 5804 5803 5802 5801 5800 5798 5797 5794 5792 5790 5788 5786 5784 5782 5779 5777 5774 5771
5799 5800 5801 5802 5802 5803 5803 5804 5804 5804 5804 5804 5805 5804 5804 5804 5803 5802 5801 5800 5799 5798 5797 5796 5794 5793 5792 5789 5787 5785 5783 5780 5778 5776 5774 5771 5768 5766
5794 5795 5796 5796 5797 5798 5798 5799 5799 5799 5799 5800 5800 5799 5799 5799 5798 5797 5796 5795 5794 5793 5791 5790 5788 5787 5785 5783 5781 5779 5776 5774 5772 5769 5767 5765 5762 5760
5788 5789 5790 5791 5792 5792 5793 5793 5793 5794 5794 5794 5794 5794 5794 5793 5792 5791 5790 5789 5788 5787 5785 5783 5782 5780 5778 5777 5775 5772 5770 5767 5764 5762 5760 5758 5755 5753
5782 5783 5784 5785 5786 5786 5787 5787 5788 5788 5788 5789 5789 5788 5788 5787 5786 5785 5784 5783 5782 5780 5779 5777 5775 5773 5771 5769 5767 5765 5762 5760 5757 5754 5752 5750 5747 5745
5776 5777 5778 5779 5780 5780 5781 5782 5782 5782 5782 5782 5782 5782 5782 5781 5780 5779 5778 5777 5776 5774 5772 5770 5768 5766 5764 5762 5759 5757 5755 5753 5750 5747 5744 5742 5739 5736
5769 5770 5771 5772 5773 5774 5775 5775 5776 5776 5776 5776 5776 5775 5775 5774 5773 5772 5771 5770 5769 5767 5765 5764 5761 5759 5757 5755 5752 5750 5747 5745 5743 5740 5737 5734 5731 5728
5761 5763 5764 5765 5766 5767 5768 5768 5768 5769 5769 5769 5769 5768 5768 5767 5766 5765 5764 5763 5762 5760 5758 5756 5754 5752 5751 5748 5745 5743 5740 5738 5735 5732 5729 5726 5723 5720
5753 5755 5756 5757 5758 5759 5760 5761 5761 5761 5761 5761 5761 5761 5760 5760 5759 5758 5756 5755 5754 5752 5751 5748 5746 5744 5742 5740 5738 5735 5732 5730 5727 5724 5721 5718 5715 5712
5745 5746 5748 5749 5750 5751 5752 5752 5753 5753 5753 5753 5753 5753 5752 5752 5751 5749 5748 5747 5746 5744 5743 5741 5738 5736 5734 5732 5729 5727 5724 5721 5719 5716 5713 5709 5706 5703
5736 5737 5739 5740 5741 5742 5743 5744 5744 5745 5745 5745 5745 5745 5744 5744 5743 5741 5740 5738 5737 5735 5734 5732 5730 5728 5725 5723 5721 5718 5716 5712 5709 5707 5704 5701 5698 5694
5726 5728 5729 5730 5732 5733 5734 5735 5735 5736 5736 5736 5736 5736 5735 5735 5734 5732 5731 5729 5728 5726 5724 5723 5720 5719 5716 5714 5712 5710 5707 5704 5701 5697 5694 5691 5688 5685
5716 5718 5719 5721 5722 5723 5724 5725 5726 5726 5727 5727 5727 5726 5726 5725 5724 5723 5721 5720 5718 5717 5715 5713 5711 5709 5707 5705 5702 5700 5697 5695 5692 5688 5685 5682 5678 5675